SCP
8 9 10 11 12 14 16 15 14 13 12 11 10 9 9 7 5 3 2 1 1 1 1 0 0 0 0 0 0 0 0 0 0 0 0 0 0 0 0 0 0 0 0
11 12 13 13 14 16 17 16 15 15 14 13 10 9 7 6 4 2 1 1 1 0 0 0 0 0 0 0 0 0 0 0 0 0 0 0 0 0 0 0 0 0 0
14 15 15 16 17 18 19 18 18 18 16 14 10 8 6 4 2 1 0 0 0 0 0 0 0 0 0 0 0 0 0 0 0 0 0 0 0 0 0 0 0 0 0
16 16 17 18 19 19 19 19 18 16 14 12 10 7 4 2 1 0 0 0 0 0 0 0 0 0 0 0 0 0 0 0 0 0 0 0 0 0 0 0 0 0 0
18 18 19 20 20 19 18 16 14 11 9 9 7 5 3 1 0 0 0 0 0 0 0 0 0 0 0 0 0 0 0 0 0 0 0 0 0 0 0 0 0 0 0
18 18 19 19 19 17 14 12 9 7 6 5 4 3 1 0 0 0 0 0 0 0 0 0 0 0 0 0 0 0 0 0 0 0 0 0 0 0 0 0 0 0 0
15 16 18 17 15 12 10 7 5 4 3 3 3 2 1 0 0 0 0 0 0 0 0 0 0 0 0 0 0 0 0 0 0 0 0 0 0 0 0 0 0 0 0
11 12 13 13 11 8 5 4 2 2 2 2 2 1 0 0 0 0 0 0 0 0 0 0 0 0 0 0 0 0 0 0 0 0 0 0 0 0 0 0 0 0 0
7 7 8 7 6 4 2 1 1 1 1 1 1 0 0 0 0 0 0 0 0 0 0 0 0 0 0 0 0 0 0 0 0 0 0 0 0 0 0 0 0 0 0
4 4 4 3 2 1 0 0 1 1 1 0 0 0 0 0 0 0 0 0 0 0 0 0 0 0 0 0 0 0 0 0 0 0 0 0 0 0 0 0 0 0 0
2 2 2 1 1 0 0 0 0 0 0 0 0 0 0 0 0 0 0 0 0 0 0 0 0 0 0 0 0 0 0 0 0 0 0 0 0 0 0 0 0 0 0
1 1 1 0 0 0 0 0 0 0 0 0 0 0 0 0 0 0 0 0 0 0 0 0 0 0 0 0 0 0 0 0 0 0 0 0 0 0 0 0 0 0 0
1 0 0 0 0 0 0 0 0 0 0 0 0 0 0 0 0 0 0 0 0 0 0 0 0 0 0 0 0 0 0 0 0 0 0 0 0 0 0 0 0 0 0
0 0 0 0 0 0 0 0 0 0 0 0 0 0 0 0 0 0 0 0 0 0 0 0 0 0 0 0 0 0 0 0 0 0 0 0 0 0 0 0 0 0 0
0 0 0 0 0 0 0 0 0 0 0 0 0 0 0 0 0 0 0 0 0 0 0 0 0 0 0 0 0 0 0 0 0 0 0 0 0 0 0 0 0 0 0
0 0 0 0 0 0 0 0 0 0 0 0 0 0 0 0 0 0 0 0 0 0 0 0 0 0 0 0 0 0 0 0 0 0 0 0 0 0 0 0 0 0 0
0 0 0 0 0 0 0 0 0 0 0 0 0 0 0 0 0 0 0 0 0 0 0 0 0 0 0 0 0 0 0 0 0 0 0 0 0 0 0 0 0 0 0
0 0 0 0 0 0 0 0 0 0 0 0 0 0 0 0 0 0 0 0 0 0 0 0 0 0 0 0 0 0 0 0 0 0 0 0 0 0 0 0 0 0 0
0 0 0 0 0 0 0 0 0 0 0 0 0 0 0 0 0 0 0 0 0 0 0 0 0 0 0 0 0 0 0 0 0 0 0 0 0 0 0 0 0 0 0
0 0 0 0 0 0 0 0 0 0 0 0 0 0 0 0 0 0 0 0 0 0 0 0 0 0 0 0 0 0 0 0 0 0 0 0 0 0 0 0 0 0 0
0 0 0 0 0 0 0 0 0 0 0 0 0 0 0 0 0 0 0 0 0 0 0 0 0 0 0 0 0 0 0 0 0 0 0 0 0 0 0 0 0 0 0
0 0 0 0 0 0 0 0 0 0 0 0 0 0 0 0 0 0 0 0 0 0 0 0 0 0 0 0 0 0 0 0 0 0 0 0 0 0 0 0 0 0 0
0 0 0 0 0 0 0 0 0 0 0 0 0 0 0 0 0 0 0 0 0 0 0 0 0 0 0 0 0 0 0 0 0 0 0 0 0 0 0 0 0 0 0
0 0 0 0 0 0 0 0 0 0 0 0 0 0 0 0 0 0 0 0 0 0 0 0 0 0 0 0 0 0 0 0 0 0 0 0 0 0 0 0 0 0 0
0 0 0 0 0 0 0 0 0 0 0 0 0 0 0 0 0 0 0 0 0 0 0 0 0 0 0 0 0 0 0 0 0 0 0 0 0 0 0 0 0 0 0
0 0 0 0 0 0 0 0 0 0 0 0 0 0 0 0 0 0 0 0 0 0 0 0 0 0 0 0 0 0 0 0 0 0 0 0 0 0 0 0 0 0 0
Wind_Speed
15 13 13 14 14 13 13 14 13 12 10 8 7 6 5 5 5 5 6 7 7 7 7 6 5 4 4 3 3 3 4 4 3 3 4 4 3 3 3 3 4 5 5
10 12 12 13 14 14 12 11 11 10 8 6 4 4 6 5 5 5 6 7 7 7 7 7 5 4 4 5 4 3 2 3 4 2 2 4 5 4 3 3 4 5 4
16 16 15 14 13 12 11 10 9 8 7 8 8 7 6 5 4 5 5 5 7 8 7 7 6 5 4 4 4 4 4 2 3 3 2 1 2 4 4 3 3 5 4
13 15 15 13 12 10 9 10 9 9 9 8 9 10 6 5 4 4 5 6 7 7 7 7 6 5 4 4 4 4 3 3 2 2 2 2 2 1 4 5 4 5 4
14 16 14 13 11 11 10 9 10 8 8 8 9 9 8 7 6 6 7 6 5 6 7 6 6 5 4 4 4 3 3 2 2 1 0 1 1 1 2 4 5 5 4
12 12 12 14 13 11 11 9 10 8 7 8 8 10 11 11 10 8 6 5 4 4 5 6 5 5 4 3 3 2 2 1 1 1 1 1 1 2 2 4 4 5 5
14 15 15 14 12 12 11 10 11 9 8 9 8 8 10 10 9 8 7 6 4 3 4 5 4 3 3 2 2 1 0 0 1 2 2 2 3 3 3 3 5 5 4
14 14 13 13 12 11 10 10 10 9 9 9 8 8 8 6 5 6 6 6 4 4 4 4 4 3 3 2 2 1 1 2 3 4 4 3 4 3 4 4 4 7 5
15 14 13 12 11 11 9 9 10 10 9 9 9 9 8 8 7 7 6 5 5 5 5 4 3 2 2 1 1 1 2 2 3 4 4 4 4 4 4 4 4 5 10
14 14 12 11 10 10 10 10 10 10 9 9 8 8 8 8 8 8 7 6 5 5 4 3 2 0 1 1 1 2 3 3 3 3 3 4 3 4 4 4 4 4 7
13 12 10 10 9 10 10 10 10 9 9 8 8 8 8 8 8 7 6 5 5 4 3 2 2 2 2 3 3 3 3 3 4 4 4 5 5 4 4 4 4 5 5
12 11 10 9 9 9 9 9 9 8 8 8 9 8 8 8 7 7 5 5 5 4 4 3 4 5 6 6 5 5 5 4 4 5 5 6 6 6 5 5 6 6 6
11 10 9 8 8 7 8 8 8 8 8 9 9 8 8 7 7 6 5 5 5 4 5 5 6 6 5 5 4 4 4 4 4 5 6 7 7 7 7 7 7 6 7
10 9 9 8 8 7 7 8 8 8 8 9 9 8 7 6 6 5 5 5 5 5 5 5 5 5 4 4 3 3 3 5 6 6 6 7 7 8 8 7 7 7 7
10 9 9 8 8 8 8 8 8 8 8 9 8 7 6 5 5 5 5 5 4 5 4 5 4 3 2 1 2 3 4 5 7 7 8 8 12 14 11 9 8 8 7
10 9 9 8 8 8 8 8 8 7 8 8 7 5 5 5 5 4 4 4 5 5 5 4 3 1 1 2 4 5 5 6 7 8 9 10 10 13 16 18 18 16 12
9 9 8 8 8 7 8 8 7 7 7 7 6 5 4 4 4 5 6 5 5 4 4 3 2 2 3 4 5 9 6 6 7 8 8 9 10 12 8 13 17 16 17
9 9 8 9 7 7 7 7 7 7 6 5 4 4 5 6 6 6 5 4 3 3 2 2 2 2 3 4 6 10 7 7 7 8 8 9 9 9 10 10 11 10 10
9 8 8 8 7 7 6 7 6 5 4 4 4 5 6 6 5 5 4 3 2 2 2 2 3 3 4 5 7 9 6 6 8 9 9 9 8 12 13 10 10 11 9
8 8 7 7 7 5 5 6 5 5 5 5 5 5 5 5 4 3 2 2 2 2 3 4 4 4 3 5 8 10 4 6 8 8 8 10 10 14 14 9 8 9 9
8 7 7 6 5 4 5 5 5 5 4 5 5 4 4 4 3 2 2 3 3 4 4 4 4 4 4 6 10 12 5 6 8 7 7 7 13 14 14 10 6 9 10
7 6 6 5 3 3 4 5 4 3 4 5 5 4 3 3 3 3 3 3 4 4 4 4 5 4 5 6 10 14 12 11 7 7 6 8 14 14 13 9 9 11 9
5 4 4 3 2 2 4 4 2 3 4 3 3 2 3 2 3 3 3 3 3 3 3 3 4 5 5 6 11 14 15 15 7 6 11 13 13 11 8 10 11 8 5
4 3 4 4 3 2 3 3 3 3 3 3 2 2 2 2 2 2 3 2 2 2 3 3 4 5 5 5 7 8 8 10 9 7 9 11 10 8 8 8 7 5 4
3 3 3 4 3 3 3 2 2 3 3 2 1 2 2 2 2 1 2 2 2 2 0 2 3 5 5 7 12 8 6 6 7 7 4 4 5 6 6 6 6 5 5
3 4 4 4 4 4 4 3 3 4 3 2 1 1 2 2 2 1 1 0 2 2 2 3 4 4 6 10 12 13 12 12 13 6 5 5 5 6 6 6 6 5 5
Wind_Direction
205 193 186 179 174 172 173 173 170 169 157 150 146 137 126 113 98 91 92 94 95 94 89 87 73 69 76 77 75 72 54 33 18 30 351 334 346 14 35 33 39 26 16
189 185 182 176 174 171 168 166 165 160 152 141 125 117 113 98 87 85 76 78 86 89 93 90 85 79 83 66 54 64 69 32 31 64 35 347 340 345 10 15 33 18 11
184 179 174 171 165 162 160 155 147 136 126 123 113 106 94 85 78 78 75 71 82 82 84 84 82 73 79 81 70 66 83 63 26 50 105 102 287 313 323 347 16 10 7
179 172 166 160 152 141 131 126 121 119 121 129 135 136 132 126 119 116 103 86 83 89 90 89 86 82 82 85 78 76 81 89 49 25 45 135 176 233 311 323 339 350 353
172 165 155 141 125 120 117 114 108 109 119 127 132 126 120 118 122 117 109 101 98 101 100 95 90 90 89 89 83 80 77 95 122 107 18 22 37 144 193 290 312 320 312
150 134 120 117 112 109 106 107 105 101 105 109 116 126 131 134 134 128 122 113 102 94 97 96 95 98 98 97 100 95 91 113 153 184 188 181 217 249 221 250 273 285 288
130 126 123 116 112 107 104 104 103 101 102 106 111 122 129 133 135 134 131 127 114 104 106 103 107 108 112 112 107 92 76 230 232 230 231 225 224 222 226 249 270 270 272
109 110 105 102 101 96 94 97 99 96 94 98 99 103 108 110 114 118 124 127 123 121 122 119 124 125 127 133 139 163 252 242 247 253 250 250 252 240 236 243 269 288 281
98 97 94 92 92 91 90 97 101 96 92 93 94 93 97 100 104 106 109 114 118 122 119 122 128 145 169 196 206 246 268 272 268 268 267 261 263 259 253 246 239 265 290
95 93 91 91 92 96 96 93 93 97 96 96 98 99 95 99 101 101 101 102 101 101 108 110 121 139 323 320 324 311 308 311 305 298 301 295 286 284 277 268 259 248 268
106 104 101 99 98 97 97 96 94 92 91 90 93 95 94 96 95 94 96 99 96 94 86 77 63 40 23 19 31 24 17 10 354 348 337 316 304 293 289 280 270 263 261
108 106 105 103 102 101 101 101 100 96 95 96 92 89 88 89 91 91 89 87 80 68 65 60 59 62 64 60 55 35 22 10 350 334 325 312 310 300 288 278 271 267 260
101 95 92 90 90 92 94 95 93 93 93 93 90 84 81 80 80 76 70 66 64 56 53 60 75 86 83 69 53 33 7 347 327 315 307 299 298 293 288 281 275 271 273
97 96 91 86 87 86 87 89 86 86 89 86 83 78 74 73 71 67 60 56 58 61 64 76 91 98 93 76 45 15 350 331 316 305 295 290 287 283 283 284 276 277 276
106 106 106 103 96 90 84 84 83 81 84 83 78 73 68 61 54 51 54 54 54 61 70 86 92 94 101 69 32 350 336 322 313 308 300 297 305 308 308 307 298 291 284
113 113 111 108 104 101 97 90 84 80 80 81 77 67 58 54 54 52 51 53 52 56 63 69 73 41 3 324 338 342 322 312 307 305 304 305 306 312 317 315 312 306 298
113 110 108 105 101 96 95 91 85 79 75 72 68 62 61 63 61 66 62 58 58 62 61 52 38 350 308 311 332 338 330 310 302 300 303 309 311 314 308 311 313 308 303
105 104 105 102 96 93 89 89 85 80 76 71 64 69 79 82 76 71 62 55 53 54 44 20 1 344 329 337 344 339 331 310 303 301 299 299 303 308 312 311 307 304 301
102 103 105 104 99 93 91 87 82 80 78 76 76 89 97 96 84 71 56 48 51 35 13 6 7 5 349 356 347 344 321 310 308 305 304 305 305 307 313 313 310 309 307
101 103 99 94 91 86 85 87 84 82 85 86 86 96 106 104 95 83 60 37 49 31 20 17 12 16 358 344 343 344 321 315 315 311 311 312 311 313 316 314 310 311 314
102 99 95 90 88 88 87 88 88 96 106 100 93 95 110 112 105 75 49 43 45 36 24 16 2 358 348 339 339 341 332 317 314 313 316 315 318 320 321 319 306 305 308
103 99 97 94 92 95 99 100 106 121 116 109 102 100 106 106 95 82 57 47 48 38 18 3 351 337 332 336 334 335 333 328 313 309 312 314 320 325 327 328 324 325 324
109 104 105 101 91 105 115 115 139 136 124 118 118 113 97 85 95 99 84 56 43 37 8 355 341 328 326 329 335 333 331 332 328 311 319 326 331 334 331 330 335 337 333
123 119 112 108 101 103 114 140 151 139 127 133 148 148 124 99 90 98 104 94 61 32 5 351 336 325 324 331 336 330 327 331 334 327 325 328 334 342 337 334 336 335 331
131 120 116 114 113 104 98 115 125 117 113 126 148 142 136 137 132 125 148 146 181 181 174 319 313 319 325 324 327 330 329 332 330 326 329 343 342 346 343 340 338 338 340
131 122 116 113 108 100 91 82 90 107 111 104 110 131 141 145 149 132 37 263 211 227 263 310 325 308 313 329 341 347 348 349 350 354 346 345 346 344 343 342 339 335 340